Overview Statistics Trail Chart Weather Telemetry Raw packets
 

This is the latest recevied weather packets stored in our database for station/object WW6Q. If no packets are shown the sender has not sent any weather packets the latest 10 day(s).

<< 61 62 63 64 65 66 67 >>
Time Temp. Humidity Pressure Rain* Wind** Luminosity Snow
1788200965 26.67° C 75% 1016.4 hPa 0 mm - 297 W/m² -
1788200661 26.67° C 74% 1016.3 hPa 0 mm - 298 W/m² -
1788200357 26.67° C 73% 1016.4 hPa 0 mm - 860 W/m² -
1788200052 26.11° C 75% 1016.4 hPa 0 mm - 240 W/m² -
1788199752 25.56° C 75% 1016.6 hPa 0 mm - 768 W/m² -
1788199446 25.56° C 74% 1016.5 hPa 0 mm - 257 W/m² -
1788199145 25.56° C 77% 1017 hPa 0 mm - 282 W/m² -
1788198842 25.56° C 74% 1016.8 hPa 0 mm - 241 W/m² -
1788198538 25.56° C 74% 1017.1 hPa 0 mm - 217 W/m² -
1788198233 25.56° C 72% 1016.9 hPa 0 mm - 259 W/m² -
1788197932 25.56° C 73% 1016.9 hPa 0 mm - 269 W/m² -
1788197626 25.56° C 74% 1016.9 hPa 0 mm - 283 W/m² -
1788197321 25.56° C 75% 1016.8 hPa 0 mm - 801 W/m² -
1788197017 25.56° C 75% 1017 hPa 0 mm - 363 W/m² -
1788196716 25.56° C 76% 1017.2 hPa 0 mm - 344 W/m² -
1788196413 25.56° C 76% 1017.3 hPa 0 mm - 426 W/m² -
1788196110 25.56° C 78% 1017.2 hPa 0 mm - 388 W/m² -
1788195806 25° C 74% 1017.6 hPa 0 mm - 394 W/m² -
1788195502 25° C 79% 1017.7 hPa 0 mm - 285 W/m² -
1788195198 24.44° C 78% 1017.2 hPa 0 mm - 242 W/m² -
1788194894 24.44° C 78% 1017.1 hPa 0 mm - 248 W/m² -
1788194590 24.44° C 81% 1017.1 hPa 0 mm - 225 W/m² -
1788194285 25° C 78% 1017.2 hPa 0 mm - 185 W/m² -
1788193981 25° C 76% 1017.3 hPa 0 mm - 192 W/m² -
1788193679 25° C 76% 1017.5 hPa 0 mm - 194 W/m² -

* Rain latest hour (hover to see other rain measurements)
** Current wind speed in m/s (hover to see current wind gust speed)